• In Russia
  • List of Countries
  • For 7 days
  • Water Temperature
  • Satellite Maps
  • Weather Map
  • Weather Widgets
  • user-avatar
    Login

    Hourly Weather Yulara

    Today, 23 June, Friday

    Time Temperature Precipitation Wind Pressure Humidity
    00:00 +16°C° 0 mm 2 mps 720 mmHg 36%
    01:00 +16°C° 0 mm 2 mps 720 mmHg 38%
    02:00 +14°C° 0 mm 3 mps 720 mmHg 39%
    03:00 +14°C° 0 mm 3 mps 719 mmHg 41%
    04:00 +14°C° 0 mm 3 mps 719 mmHg 43%
    05:00 +14°C° 0 mm 2 mps 719 mmHg 45%
    06:00 +14°C° 0 mm 2 mps 719 mmHg 47%
    07:00 +15°C° 0 mm 2 mps 720 mmHg 44%
    08:00 +16°C° 0 mm 2 mps 720 mmHg 41%
    09:00 +17°C° 0 mm 2 mps 720 mmHg 38%
    10:00 +20°C° 0 mm 2 mps 720 mmHg 34%
    11:00 +22°C° 0 mm 3 mps 720 mmHg 29%
    12:00 +25°C° 0 mm 3 mps 720 mmHg 25%
    13:00 +26°C° 0 mm 3 mps 719 mmHg 24%
    14:00 +26°C° 0 mm 3 mps 719 mmHg 22%
    15:00 +27°C° 0 mm 3 mps 718 mmHg 21%
    16:00 +25°C° 0 mm 3 mps 718 mmHg 24%
    17:00 +24°C° 0 mm 2 mps 718 mmHg 28%
    18:00 +21°C° 0 mm 2 mps 718 mmHg 31%
    19:00 +20°C° 0 mm 2 mps 718 mmHg 32%
    20:00 +20°C° 0 mm 2 mps 719 mmHg 33%
    21:00 +19°C° 0 mm 2 mps 719 mmHg 34%
    22:00 +19°C° 0 mm 2 mps 719 mmHg 34%
    23:00 +18°C° 0 mm 3 mps 719 mmHg 35%

    Tomorrow, 24 June, Saturday

    Time Temperature Precipitation Wind Pressure Humidity
    00:00 +18°C° 0 mm 3 mps 719 mmHg 35%
    01:00 +17°C° 0 mm 3 mps 719 mmHg 37%
    02:00 +17°C° 0 mm 3 mps 719 mmHg 38%
    03:00 +16°C° 0 mm 3 mps 718 mmHg 40%
    04:00 +16°C° 0 mm 3 mps 718 mmHg 41%
    05:00 +14°C° 0 mm 3 mps 718 mmHg 42%
    06:00 +14°C° 0 mm 3 mps 718 mmHg 44%
    07:00 +16°C° 0 mm 3 mps 719 mmHg 41%
    08:00 +17°C° 0 mm 3 mps 719 mmHg 39%
    09:00 +18°C° 0 mm 3 mps 720 mmHg 36%
    10:00 +20°C° 0 mm 3 mps 719 mmHg 33%
    11:00 +22°C° 0 mm 3 mps 719 mmHg 30%
    12:00 +24°C° 0 mm 2 mps 719 mmHg 26%
    13:00 +25°C° 0 mm 2 mps 719 mmHg 25%
    14:00 +26°C° 0 mm 2 mps 718 mmHg 24%
    15:00 +26°C° 0 mm 1 mps 718 mmHg 24%
    16:00 +25°C° 0 mm 1 mps 718 mmHg 27%
    17:00 +23°C° 0 mm 1 mps 717 mmHg 30%
    18:00 +21°C° 0 mm 2 mps 717 mmHg 33%
    19:00 +20°C° 0 mm 2 mps 718 mmHg 33%
    20:00 +20°C° 0 mm 3 mps 718 mmHg 34%
    21:00 +19°C° 0 mm 3 mps 719 mmHg 34%
    22:00 +19°C° 0 mm 4 mps 719 mmHg 36%
    23:00 +18°C° 0 mm 4 mps 719 mmHg 37%

    Day after tomorrow, 25 June, Sunday

    Time Temperature Precipitation Wind Pressure Humidity
    00:00 +17°C° 0 mm 4 mps 719 mmHg 38%
    01:00 +17°C° 0 mm 4 mps 718 mmHg 39%
    02:00 +15°C° 0 mm 4 mps 718 mmHg 40%
    03:00 +15°C° 0 mm 5 mps 718 mmHg 41%
    04:00 +14°C° 0 mm 4 mps 718 mmHg 42%
    05:00 +14°C° 0 mm 3 mps 718 mmHg 43%
    06:00 +15°C° 0 mm 2 mps 718 mmHg 44%
    07:00 +16°C° 0 mm 3 mps 719 mmHg 42%
    08:00 +16°C° 0 mm 3 mps 720 mmHg 40%
    09:00 +17°C° 0 mm 3 mps 720 mmHg 38%
    10:00 +18°C° 0 mm 4 mps 720 mmHg 38%
    11:00 +17°C° 0 mm 5 mps 720 mmHg 38%
    12:00 +19°C° 0 mm 5 mps 720 mmHg 37%
    13:00 +19°C° 0 mm 5 mps 720 mmHg 38%
    14:00 +19°C° 0 mm 5 mps 719 mmHg 38%
    15:00 +19°C° 0 mm 6 mps 719 mmHg 38%
    16:00 +19°C° 0 mm 6 mps 719 mmHg 40%
    17:00 +17°C° 0 mm 6 mps 719 mmHg 42%
    18:00 +17°C° 0 mm 6 mps 719 mmHg 43%
    19:00 +16°C° 0.1 mm 7 mps 720 mmHg 46%
    20:00 +16°C° 0.1 mm 7 mps 720 mmHg 50%
    21:00 +15°C° 0.1 mm 7 mps 721 mmHg 53%
    22:00 +15°C° 0.1 mm 7 mps 721 mmHg 55%
    23:00 +15°C° 0.1 mm 7 mps 721 mmHg 57%

    26 June, Monday

    Time Temperature Precipitation Wind Pressure Humidity
    00:00 +15°C° 0.1 mm 7 mps 720 mmHg 60%
    01:00 +15°C° 0.2 mm 8 mps 720 mmHg 61%
    02:00 +13°C° 0.2 mm 8 mps 720 mmHg 62%
    03:00 +13°C° 0.2 mm 8 mps 719 mmHg 64%
    04:00 +13°C° 0 mm 8 mps 720 mmHg 64%
    05:00 +13°C° 0 mm 8 mps 720 mmHg 64%
    06:00 +13°C° 0 mm 8 mps 720 mmHg 65%
    07:00 +13°C° 0 mm 8 mps 721 mmHg 63%
    08:00 +13°C° 0 mm 9 mps 721 mmHg 62%
    09:00 +15°C° 0 mm 9 mps 722 mmHg 61%
    10:00 +15°C° 0.2 mm 9 mps 722 mmHg 57%
    11:00 +16°C° 0.2 mm 8 mps 721 mmHg 54%
    12:00 +17°C° 0.2 mm 7 mps 721 mmHg 51%
    13:00 +16°C° 0.6 mm 8 mps 721 mmHg 55%
    14:00 +16°C° 0.6 mm 8 mps 720 mmHg 60%
    15:00 +15°C° 0.6 mm 8 mps 720 mmHg 64%
    16:00 +15°C° 0.3 mm 8 mps 720 mmHg 66%
    17:00 +15°C° 0.3 mm 8 mps 720 mmHg 69%
    18:00 +13°C° 0.3 mm 8 mps 720 mmHg 71%
    19:00 +13°C° 0.5 mm 8 mps 720 mmHg 72%
    20:00 +13°C° 0.5 mm 8 mps 721 mmHg 73%
    21:00 +13°C° 0.5 mm 8 mps 721 mmHg 74%
    22:00 +12°C° 0.1 mm 8 mps 721 mmHg 72%
    23:00 +12°C° 0.1 mm 8 mps 721 mmHg 71%

    27 June, Tuesday

    Time Temperature Precipitation Wind Pressure Humidity
    00:00 +12°C° 0.1 mm 8 mps 721 mmHg 70%
    01:00 +12°C° 0.5 mm 8 mps 721 mmHg 70%
    02:00 +12°C° 0.5 mm 7 mps 721 mmHg 71%
    03:00 +13°C° 0.5 mm 6 mps 721 mmHg 72%
    04:00 +11°C° 0.1 mm 6 mps 721 mmHg 72%
    05:00 +11°C° 0.1 mm 6 mps 721 mmHg 72%
    06:00 +11°C° 0.1 mm 7 mps 721 mmHg 72%
    07:00 +11°C° 0 mm 7 mps 721 mmHg 71%
    08:00 +12°C° 0 mm 7 mps 722 mmHg 69%
    09:00 +12°C° 0 mm 8 mps 722 mmHg 67%
    10:00 +14°C° 0 mm 7 mps 722 mmHg 63%
    11:00 +15°C° 0 mm 7 mps 721 mmHg 58%
    12:00 +17°C° 0 mm 7 mps 721 mmHg 53%
    13:00 +17°C° 0 mm 6 mps 721 mmHg 51%
    14:00 +19°C° 0 mm 6 mps 720 mmHg 49%
    15:00 +19°C° 0 mm 5 mps 720 mmHg 47%
    16:00 +19°C° 0 mm 5 mps 720 mmHg 49%
    17:00 +17°C° 0 mm 5 mps 720 mmHg 51%
    18:00 +17°C° 0 mm 4 mps 721 mmHg 53%
    19:00 +16°C° 0.1 mm 5 mps 721 mmHg 56%
    20:00 +16°C° 0.1 mm 6 mps 721 mmHg 59%
    21:00 +15°C° 0.1 mm 7 mps 722 mmHg 61%
    22:00 +14°C° 0.2 mm 7 mps 722 mmHg 66%
    23:00 +14°C° 0.2 mm 6 mps 721 mmHg 71%

    28 June, Wednesday

    Time Temperature Precipitation Wind Pressure Humidity
    00:00 +13°C° 0.2 mm 6 mps 721 mmHg 75%
    01:00 +13°C° 0.3 mm 6 mps 721 mmHg 77%
    02:00 +11°C° 0.3 mm 6 mps 721 mmHg 79%
    03:00 +11°C° 0.3 mm 6 mps 721 mmHg 81%
    04:00 +11°C° 0.7 mm 6 mps 721 mmHg 82%
    05:00 +11°C° 0.7 mm 6 mps 722 mmHg 82%
    06:00 +12°C° 0.7 mm 5 mps 722 mmHg 83%
    07:00 +11°C° 0.9 mm 6 mps 722 mmHg 83%
    08:00 +11°C° 0.9 mm 6 mps 723 mmHg 83%
    09:00 +11°C° 0.9 mm 6 mps 723 mmHg 84%
    10:00 +11°C° 0.7 mm 7 mps 723 mmHg 83%
    11:00 +11°C° 0.7 mm 7 mps 723 mmHg 83%
    12:00 +11°C° 0.7 mm 7 mps 723 mmHg 82%
    13:00 +11°C° 0.3 mm 7 mps 722 mmHg 81%
    14:00 +11°C° 0.3 mm 7 mps 722 mmHg 80%
    15:00 +13°C° 0.3 mm 6 mps 722 mmHg 78%
    16:00 +11°C° 0.2 mm 6 mps 722 mmHg 80%
    17:00 +11°C° 0.2 mm 6 mps 723 mmHg 82%
    18:00 +11°C° 0.2 mm 6 mps 723 mmHg 83%
    19:00 +11°C° 0.1 mm 6 mps 724 mmHg 84%
    20:00 +11°C° 0.1 mm 6 mps 724 mmHg 84%
    21:00 +11°C° 0.1 mm 6 mps 725 mmHg 84%
    22:00 +10°C° 0 mm 6 mps 725 mmHg 85%
    23:00 +10°C° 0 mm 6 mps 725 mmHg 86%
    Show more